SCP
0 0 0 0 0 0 0 0 0 0 0 0 0 0 0 0 0 0 0 0 0 0 1 0 0 0 0 0 0 0 0 0 0 0 0 0 0 0 0 0 0 0 0 0 0 0 0 0 0
0 0 0 0 0 0 0 0 0 0 0 0 0 0 0 0 0 0 0 0 0 0 1 1 1 1 0 0 0 0 0 0 0 0 0 0 0 0 0 0 0 0 0 0 0 0 0 0 0
0 0 0 0 0 0 0 0 0 0 0 0 0 0 0 0 0 0 0 0 0 1 1 1 1 1 1 0 0 0 0 0 0 0 0 0 0 0 0 0 0 0 0 0 0 0 0 0 0
0 0 0 0 0 0 0 0 0 0 0 0 0 0 0 0 0 0 0 0 0 1 1 1 1 1 1 1 0 0 0 0 0 0 0 0 0 0 0 0 0 0 0 0 0 0 0 0 0
0 0 0 0 0 0 0 0 0 0 0 0 0 0 0 0 0 0 0 0 0 1 1 1 1 1 1 1 0 0 0 0 0 0 0 0 0 0 0 0 0 0 0 0 0 0 0 0 0
0 0 0 0 0 0 0 0 0 0 0 0 0 0 0 0 0 0 0 1 1 1 1 1 1 1 1 0 0 0 0 0 0 0 0 0 0 0 0 0 0 0 0 0 0 0 0 0 0
0 0 0 0 0 0 0 0 0 0 0 0 0 0 0 0 0 1 1 1 1 1 1 1 1 1 0 0 0 0 0 0 0 0 0 0 0 0 0 0 0 0 0 0 0 0 0 0 0
0 0 0 0 0 0 0 0 0 0 0 0 0 0 0 0 1 1 1 1 1 1 1 1 1 1 0 0 0 0 0 0 0 0 0 0 0 0 0 0 0 0 0 0 0 0 0 0 0
0 0 0 0 0 0 0 0 0 0 0 0 0 0 0 0 1 1 1 1 1 1 1 1 1 1 0 0 0 0 0 0 0 0 0 0 0 0 0 0 0 0 0 0 0 0 0 0 0
0 0 0 0 0 0 0 0 0 0 0 0 0 0 0 0 1 1 1 1 1 1 1 1 1 1 1 1 0 0 0 0 0 0 0 0 0 0 0 0 0 0 0 0 0 0 0 0 0
0 0 0 0 0 0 0 0 0 0 0 0 0 0 0 0 1 1 1 1 1 1 1 1 1 1 1 1 1 1 0 0 0 0 0 0 0 0 0 0 0 0 0 0 0 0 0 0 0
0 0 0 0 0 0 0 0 0 0 0 0 0 0 0 0 0 0 1 1 1 1 1 1 1 1 1 1 1 1 1 1 0 0 0 0 0 0 0 0 0 0 0 0 0 0 0 0 0
0 0 0 0 0 0 0 0 0 0 0 0 0 0 0 0 0 0 1 1 1 1 1 1 1 1 1 1 1 1 1 1 0 0 0 0 0 0 0 0 0 0 0 0 0 0 0 0 0
0 0 0 0 0 0 0 0 0 0 0 0 0 0 0 0 0 0 1 1 1 1 1 1 1 1 1 1 1 1 1 1 0 0 0 0 0 0 0 0 0 0 0 0 0 0 0 0 0
0 0 0 0 0 0 0 0 0 0 0 0 0 0 0 0 0 0 0 1 1 1 1 1 1 1 0 0 1 1 1 1 0 0 0 0 0 0 0 0 0 0 0 0 0 0 0 0 0
0 0 0 0 0 0 0 0 0 0 0 0 0 0 0 0 0 0 0 1 1 1 1 1 1 1 0 0 0 0 1 1 1 0 0 0 0 0 0 0 0 0 0 0 0 0 0 0 0
0 0 0 0 0 0 0 0 0 0 0 0 0 0 0 0 0 0 0 0 1 1 1 1 1 0 0 0 0 0 0 0 0 0 0 0 0 0 0 0 0 0 0 0 0 0 0 0 0
0 0 0 0 0 0 0 0 0 0 0 0 0 0 0 0 0 0 0 0 1 1 1 1 0 0 0 0 0 0 0 0 0 0 0 0 0 0 0 0 0 0 0 0 0 0 0 0 0
0 0 0 0 0 0 0 0 0 0 0 0 0 0 0 0 0 0 0 0 0 1 1 0 0 0 0 0 0 0 0 0 0 0 0 0 0 0 0 0 0 0 0 0 0 0 0 0 0
0 0 0 0 0 0 0 0 0 0 0 0 0 0 0 0 0 0 0 0 0 0 0 0 0 0 0 0 0 0 0 0 0 0 0 0 0 0 0 0 0 0 0 0 0 0 0 0 0
0 0 0 0 0 0 0 0 0 0 0 0 0 0 0 0 0 0 0 0 0 0 0 0 0 0 0 0 0 0 0 0 0 0 0 0 0 0 0 0 0 0 0 0 0 0 0 0 0
0 0 0 0 0 0 0 0 0 0 0 0 0 0 0 0 0 0 0 0 0 0 0 0 0 0 0 0 0 0 0 0 0 0 0 0 0 0 0 0 0 0 0 0 0 0 0 0 0
0 0 0 0 0 0 0 0 0 0 0 0 0 0 0 0 0 0 0 0 0 0 0 0 0 0 0 0 0 0 0 0 0 0 0 0 0 0 0 0 0 0 0 0 0 0 0 0 0
0 0 0 0 0 0 0 0 0 0 0 0 0 0 0 0 0 0 0 0 0 0 0 0 0 0 0 0 0 0 0 0 0 0 0 0 0 0 0 0 0 0 0 0 0 0 0 0 0
0 0 0 0 0 0 0 0 0 0 0 0 0 0 0 0 0 0 0 0 0 0 0 0 0 0 0 0 0 0 0 0 0 0 0 0 0 0 0 0 0 0 0 0 0 0 0 0 0
0 0 0 0 0 0 0 0 0 0 0 0 0 0 0 0 0 0 0 0 0 0 0 0 0 0 0 0 0 0 0 0 0 0 0 0 0 0 0 0 0 0 0 0 0 0 0 0 0
0 0 0 0 0 0 0 0 0 0 0 0 0 0 0 0 0 0 0 0 0 0 0 0 0 0 0 0 0 0 0 0 0 0 0 0 0 0 0 0 0 0 0 0 0 0 0 0 0
0 0 0 0 0 0 0 0 0 0 0 0 0 0 0 0 0 0 0 0 0 0 0 0 0 0 0 0 0 0 0 0 0 0 0 0 0 0 0 0 0 0 0 0 0 0 0 0 0
0 0 0 0 0 0 0 0 0 0 0 0 0 0 0 0 0 0 0 0 0 0 0 0 0 0 0 0 0 0 0 0 0 0 0 0 0 0 0 0 0 0 0 0 0 0 0 0 0
0 0 0 0 0 0 0 0 0 0 0 0 0 0 0 0 0 0 0 0 0 0 0 0 0 0 0 0 0 0 0 0 0 0 0 0 0 0 0 0 0 0 0 0 0 0 0 0 0
Wind_Speed
4 3 3 3 5 6 10 7 5 6 5 4 3 4 4 3 1 3 5 10 12 14 14 15 12 12 12 12 12 12 12 11 11 12 12 12 12 12 12 12 12 12 12 13 13 13 13 13 13
4 3 4 4 7 10 10 9 9 7 4 4 4 4 4 2 3 5 5 9 13 13 13 14 13 12 12 13 13 13 12 12 11 12 12 11 12 12 12 12 12 12 12 12 12 13 13 13 13
3 4 4 5 8 12 10 7 8 5 4 4 5 3 1 2 3 4 6 11 12 13 12 14 13 13 12 13 13 13 12 12 11 11 11 11 11 11 12 12 12 12 12 12 12 12 12 12 12
3 4 4 8 14 13 8 4 5 7 6 4 4 5 3 3 2 4 9 12 13 13 12 14 12 13 12 12 12 12 12 12 11 11 11 10 11 11 11 11 11 11 11 11 11 11 11 11 11
3 5 8 11 16 11 7 3 5 8 7 5 5 4 4 3 3 7 11 12 12 12 11 14 12 12 12 12 12 12 11 11 11 11 10 10 10 11 11 11 10 11 11 11 10 10 11 10 10
5 6 10 15 15 10 8 6 6 6 6 5 5 4 4 4 5 8 10 11 11 11 11 12 12 11 11 11 11 11 11 11 11 10 10 10 10 10 11 10 10 10 10 10 10 10 10 10 9
6 7 12 14 13 11 8 6 7 6 7 5 4 4 5 5 5 8 9 10 10 10 10 10 11 11 10 10 10 10 10 10 10 10 9 9 9 9 10 10 10 10 9 9 9 10 9 9 9
5 6 12 13 13 11 6 5 4 6 5 2 3 4 4 5 7 8 8 9 9 9 9 9 10 10 10 10 10 9 9 9 9 9 9 8 8 9 8 8 8 9 9 9 9 9 9 8 8
5 8 13 14 11 9 5 5 3 2 4 3 1 1 3 7 8 9 8 8 8 8 8 8 8 8 8 8 9 9 9 9 9 9 9 8 7 8 7 8 7 8 8 8 8 8 8 7 7
6 10 14 9 7 6 6 5 4 5 6 5 3 2 5 7 9 10 10 11 10 9 9 8 8 8 7 6 7 7 7 7 7 7 8 6 5 5 5 8 7 7 8 8 8 8 7 4 4
6 9 7 5 5 4 5 4 4 7 6 6 5 5 6 8 8 9 9 9 10 9 8 7 7 7 7 5 5 4 4 4 5 7 7 5 5 4 5 4 5 6 6 5 6 6 3 3 3
7 6 5 4 3 4 5 4 4 6 4 2 3 6 7 9 9 9 9 8 7 7 7 7 7 7 6 6 5 4 4 4 4 5 6 5 4 4 4 3 4 4 3 4 4 3 4 3 3
8 6 6 4 3 3 4 5 4 4 3 1 3 6 7 7 7 7 7 6 6 7 6 6 6 7 6 5 4 4 4 4 5 4 5 5 4 4 4 3 3 3 3 3 3 3 3 3 3
6 6 5 5 4 3 4 4 4 3 1 3 4 5 5 5 6 5 5 5 6 6 6 6 6 6 6 6 5 5 4 4 4 4 5 5 4 4 4 4 3 3 3 3 3 3 3 2 2
6 7 6 6 5 4 4 6 5 2 2 3 3 3 4 4 5 5 5 5 5 5 5 5 5 5 6 6 6 4 4 4 4 4 5 5 4 4 4 3 3 3 3 3 2 2 2 2 2
7 8 8 5 6 5 7 8 4 3 3 3 3 3 3 4 4 4 4 4 5 5 5 5 4 5 5 5 5 4 4 4 4 4 4 5 5 5 4 3 3 3 3 3 3 2 2 2 2
7 8 9 6 5 5 7 7 3 2 3 4 3 3 2 3 2 2 3 3 4 5 5 5 5 5 5 4 4 3 3 4 3 3 3 4 5 5 4 3 3 4 3 3 3 3 2 2 2
8 8 8 7 4 6 7 6 2 2 3 4 3 2 2 1 1 2 2 3 3 4 4 4 4 4 4 3 3 3 3 3 3 3 3 4 4 5 4 3 4 4 3 3 3 3 2 2 1
7 8 8 5 3 6 8 7 4 2 3 4 3 2 2 2 1 1 1 2 3 3 3 4 4 3 3 3 3 3 3 3 3 3 4 5 5 5 5 4 4 4 4 4 4 3 3 2 2
6 7 6 3 3 5 6 6 4 4 4 3 3 3 3 2 0 1 1 1 2 2 3 3 3 4 3 3 3 3 3 2 2 2 3 4 4 5 4 5 4 5 4 5 5 4 3 2 2
5 7 6 4 2 5 4 5 6 5 4 3 3 3 2 2 2 1 1 1 1 1 2 2 3 3 3 3 2 2 2 2 2 3 3 4 4 4 4 5 4 4 5 4 5 5 5 3 3
4 5 5 6 5 4 6 5 7 6 6 4 3 3 2 2 2 1 1 1 1 1 2 2 3 3 3 3 4 5 4 4 4 3 3 3 4 4 4 4 4 4 4 4 5 5 4 4 4
3 3 5 6 5 3 5 5 4 5 7 6 5 3 2 1 2 2 2 2 2 1 1 2 2 3 3 3 4 4 4 4 3 3 4 3 3 4 4 4 4 4 4 4 4 4 4 4 4
2 3 3 3 3 4 5 6 5 5 7 6 4 3 2 1 1 1 1 2 1 1 1 2 2 2 3 3 4 4 4 4 4 4 4 3 2 3 4 4 4 4 4 4 4 4 5 4 4
2 3 2 4 4 3 4 6 5 2 3 4 4 3 2 1 2 2 2 2 2 1 1 2 2 2 3 3 4 4 4 5 5 4 4 3 3 3 3 4 4 4 4 4 4 4 4 4 4
3 3 2 2 3 2 3 6 2 0 2 2 2 2 0 1 2 3 3 2 2 2 2 2 3 2 2 3 3 4 4 3 3 4 3 3 3 3 3 4 3 4 3 3 3 3 3 3 3
2 2 1 1 1 2 4 4 3 1 2 2 2 2 1 1 2 3 3 3 2 2 2 2 3 3 3 3 3 3 3 3 3 3 3 2 2 2 3 3 3 3 3 3 3 2 3 3 3
1 1 1 2 2 3 4 5 4 4 4 3 3 3 3 2 2 3 3 3 3 3 2 2 2 3 3 2 2 2 2 3 3 3 3 2 2 2 2 3 3 3 3 3 3 2 2 3 2
1 2 1 1 2 4 4 3 1 3 3 4 4 4 3 3 3 3 3 3 3 3 2 2 1 1 1 2 2 2 2 2 2 2 3 3 2 3 3 3 3 3 3 3 3 3 3 3 3
2 3 3 2 2 3 4 2 2 2 2 3 3 3 3 3 3 3 3 2 2 2 2 2 1 1 1 1 1 1 1 2 2 2 2 2 3 3 3 3 3 3 3 3 4 4 3 4 4
Wind_Direction
293 266 232 221 214 220 227 213 209 188 190 195 185 202 210 195 224 70 94 150 144 147 147 147 142 139 136 133 131 129 128 126 126 126 123 121 118 115 112 110 108 105 101 98 96 94 93 91 89
281 244 217 222 225 217 216 211 204 195 161 156 175 197 195 167 54 88 133 148 148 146 149 149 141 141 139 136 133 131 129 129 128 127 126 124 121 118 116 113 109 105 102 100 98 96 94 92 90
243 240 223 213 224 226 213 196 203 179 165 177 174 195 212 114 117 127 140 151 149 148 149 140 143 143 142 139 137 135 131 130 129 127 127 125 123 120 118 115 110 106 104 102 100 99 96 93 92
220 204 219 227 223 225 230 181 186 179 177 193 186 157 129 63 105 131 146 155 150 149 148 140 143 143 142 140 138 135 133 132 128 125 124 124 123 121 117 113 111 109 107 106 104 102 99 96 95
227 215 209 221 228 222 226 227 190 195 182 180 194 169 136 92 102 136 152 156 152 148 146 144 145 143 141 140 138 137 135 132 128 125 124 123 124 123 119 116 114 114 112 111 109 106 103 101 100
208 215 217 219 220 216 215 211 205 207 186 176 189 177 127 111 129 144 154 157 152 148 145 145 141 141 143 143 141 139 136 134 131 129 127 125 122 124 125 122 119 118 117 115 113 110 108 105 102
223 215 225 225 223 214 208 207 214 206 195 181 190 181 144 137 136 148 154 154 150 149 148 150 152 149 145 143 142 141 138 137 135 132 129 125 124 126 128 126 124 122 119 118 116 114 112 108 105
241 224 224 225 225 219 195 197 216 222 203 147 206 198 163 144 142 147 149 150 150 153 153 155 158 158 157 154 144 141 139 140 138 132 128 126 127 128 126 131 125 125 125 121 118 115 112 108 106
233 224 221 218 223 214 187 194 194 244 192 182 206 352 87 132 148 149 151 154 156 159 160 161 161 160 160 157 150 150 146 142 143 139 133 145 147 141 143 124 121 127 127 124 121 116 111 112 112
216 224 225 226 230 218 197 206 193 192 201 197 183 113 120 141 156 161 167 168 167 168 167 168 165 163 161 159 159 163 163 159 165 158 157 158 151 140 135 119 121 126 127 128 124 122 132 150 133
214 231 230 233 238 223 203 209 209 204 209 210 198 173 155 158 165 170 173 174 173 170 165 169 168 166 164 162 164 162 163 165 167 167 164 159 150 145 148 145 143 146 150 147 142 156 153 148 132
213 227 229 232 250 229 216 211 214 226 240 268 202 167 163 169 175 179 180 176 171 166 168 170 169 170 169 166 166 167 166 168 167 171 170 168 162 163 157 160 160 164 165 162 166 160 151 151 147
217 216 220 232 235 234 214 218 227 245 279 250 157 159 166 172 177 181 180 176 174 172 172 172 175 173 173 168 168 171 170 169 165 170 176 176 173 170 163 166 168 170 166 171 174 171 157 157 150
208 211 222 227 225 228 218 235 235 251 213 162 153 160 168 176 180 178 179 179 181 179 176 175 176 176 176 176 176 173 170 167 165 171 178 181 177 173 173 171 173 173 174 175 180 171 166 163 164
208 212 218 224 221 216 213 235 235 251 190 176 167 166 174 184 186 186 187 190 188 183 178 175 178 177 177 177 178 172 173 172 173 176 180 184 182 178 177 176 177 174 173 175 176 166 179 176 179
205 210 213 210 216 221 219 226 224 230 194 197 194 186 182 189 190 189 189 192 190 183 179 173 171 179 176 174 177 173 177 177 176 178 183 186 185 184 182 182 180 175 177 183 184 187 190 195 203
195 206 210 209 205 207 215 232 240 226 207 206 205 193 180 186 187 190 188 190 189 183 178 174 175 177 175 173 174 169 175 181 176 177 182 185 186 190 191 189 181 179 183 189 189 198 205 205 217
192 202 210 212 200 201 210 227 247 240 205 202 202 194 179 170 194 205 194 184 182 176 174 172 174 175 166 163 166 161 171 179 177 180 186 185 188 193 195 190 187 184 185 190 194 189 199 212 219
205 208 217 223 215 208 211 227 241 221 200 197 200 202 204 211 200 142 168 172 167 161 172 176 175 172 169 167 177 185 189 183 183 190 192 193 191 192 194 192 188 192 196 197 193 186 187 197 210
211 209 210 212 213 215 211 231 228 208 200 202 206 205 207 216 194 62 155 159 160 173 176 179 180 179 185 192 191 199 192 194 189 189 196 199 198 194 196 195 194 194 196 198 196 192 196 191 206
215 208 204 205 216 201 199 226 203 194 198 202 210 215 217 225 237 236 232 189 174 196 202 199 188 184 189 186 174 172 168 178 186 198 199 201 197 196 199 203 201 201 204 205 205 205 205 203 201
219 209 207 203 201 197 205 221 210 202 206 202 204 218 232 235 247 256 259 227 219 223 212 210 200 187 185 182 188 188 194 202 210 204 199 195 196 196 197 200 202 202 210 211 212 213 219 214 208
232 225 209 203 204 212 200 219 218 196 213 213 214 217 229 245 245 244 252 237 229 222 206 205 200 189 185 188 194 199 208 210 205 196 189 192 198 199 201 198 197 201 205 212 213 210 216 220 217
213 179 165 186 202 226 208 216 219 200 218 215 210 217 235 259 276 281 286 272 235 223 203 196 191 189 194 195 200 202 207 209 200 202 195 194 196 200 208 208 201 202 202 205 210 210 213 221 222
170 163 173 188 201 218 189 222 236 204 231 233 223 222 249 289 307 315 314 303 284 241 220 208 199 202 204 203 206 209 208 208 204 205 208 202 200 203 208 208 208 204 203 200 200 203 207 214 219
207 204 224 218 209 196 197 223 225 64 242 240 228 220 312 343 319 312 310 305 293 257 229 214 210 214 215 216 219 212 206 211 211 208 205 206 208 207 201 204 206 202 199 195 190 193 201 206 211
188 198 294 299 231 223 212 237 251 221 234 227 230 232 247 281 300 310 318 315 301 278 251 229 218 214 216 220 224 217 207 206 205 205 206 204 201 194 191 191 197 198 190 187 181 188 190 192 200
340 165 184 212 214 220 224 235 228 207 225 237 243 244 251 272 287 305 310 314 311 306 291 254 231 219 213 213 217 218 211 208 203 198 193 192 189 175 174 183 183 191 182 178 178 178 187 188 196
152 163 194 203 275 251 234 227 326 235 235 240 250 260 266 272 285 297 309 316 322 320 307 276 251 222 200 200 208 212 208 199 195 191 186 183 182 175 177 184 186 192 191 186 182 187 188 193 199
219 204 203 218 219 250 260 261 80 273 274 263 269 274 270 271 285 298 305 313 323 328 316 306 307 283 244 220 210 219 213 189 186 190 189 180 184 183 183 184 189 194 197 194 192 193 199 206 209